Hourly Weather Roundup
Issued by NWS Central Illinois

Home | Current Version | Previous Version | Text Only | Print | Product List | Glossary On
Versions: 1 2 3 4 5 6 7 8 9 10 11 12 13 14 15 16 17 18 19 20 21 22 23 24 25 26 27 28 29 30 31 32 33 34 35 36 37 38 39 40 41 42 43 44 45 46 47 48 49 50
000
NZUS43 KILX 021810
HWRILX

AREA WEATHER ROUNDUP
NATIONAL WEATHER SERVICE, LINCOLN IL
1200 PM CST FRI DEC 02 2016


CITY           SKY/WX    TMP DP  RH WIND       PRES   REMARKS
BLOOMINGTON    CLOUDY    39  32  76 W8        30.22S WCI  33
6HR MIN TEMP:  35; 6HR MAX TEMP:  39;

CHAMPAIGN      CLOUDY    40  32  73 W14       30.22F WCI  32
6HR MIN TEMP:  36; 6HR MAX TEMP:  40;

DANVILLE       CLOUDY    39  33  77 W8        30.19S WCI  34
6HR MIN TEMP:  35; 6HR MAX TEMP:  39;

DECATUR        CLOUDY    41  30  65 W8        30.23F
6HR MIN TEMP:  36; 6HR MAX TEMP:  42;

EFFINGHAM      PTSUNNY   42  33  68 W13G18    30.27S
6HR MIN TEMP:  31; 6HR MAX TEMP:  44;

FLORA          MOSUNNY   45  31  58 NW7       30.27S
6HR MIN TEMP:  26; 6HR MAX TEMP:  45;

GALESBURG      CLOUDY    40  32  73 NW8       30.23R WCI  35
6HR MIN TEMP:  35; 6HR MAX TEMP:  40;

JACKSONVILLE   CLOUDY    40  32  72 NW9       30.25F WCI  34
6HR MIN TEMP:  31; 6HR MAX TEMP:  40;

LACON          CLOUDY    40  32  73 W9        30.21S WCI  34
6HR MIN TEMP:  36; 6HR MAX TEMP:  40;

LAWRENCEVILLE  CLOUDY    43  30  60 W10       30.26F
6HR MIN TEMP:  27; 6HR MAX TEMP:  44;

LITCHFIELD     MOSUNNY   41  32  70 NW7       30.26S
6HR MIN TEMP:  27; 6HR MAX TEMP:  41;

$$


CITY           SKY/WX    TMP DP  RH WIND       PRES   REMARKS
LINCOLN        CLOUDY    41  34  75 W8        30.24S
6HR MIN TEMP:  37; 6HR MAX TEMP:  41;

MACOMB         CLOUDY    43  33  67 NW12      30.26F
6HR MIN TEMP:  36; 6HR MAX TEMP:  43;

MATTOON        CLOUDY    40  29  64 W14       30.23F WCI  32
6HR MIN TEMP:  34; 6HR MAX TEMP:  40;

MT CARMEL AP   PTSUNNY   42  30  63 NW8       30.25F
6HR MIN TEMP:  27; 6HR MAX TEMP:  43;

OLNEY-NOBLE AP PTSUNNY   41  32  70 W8        30.26F
PARIS          CLOUDY    40  34  79 W12G17    30.24S WCI  33
6HR MIN TEMP:  35; 6HR MAX TEMP:  40;

PEORIA         CLOUDY    42  32  67 W7        30.23S
6HR MIN TEMP:  37; 6HR MAX TEMP:  42;

PONTIAC        CLOUDY    40  37  89 W12       30.22S WCI  33
6HR MIN TEMP:  37; 6HR MAX TEMP:  40;

RANTOUL        CLOUDY    41  36  82 W13       30.21S WCI  34
6HR MIN TEMP:  37; 6HR MAX TEMP:  41;

SPRINGFIELD    CLOUDY    42  33  70 NW12      30.25F
6HR MIN TEMP:  36; 6HR MAX TEMP:  42;

TAYLORVILLE    CLOUDY    39  30  71 NW13      30.25S WCI  31
6HR MIN TEMP:  33; 6HR MAX TEMP:  39;

$$

...REGIONAL REPORTS...


CITY           SKY/WX    TMP DP  RH WIND       PRES   REMARKS
CHICAGO O`HARE CLOUDY    40  28  62 NW14      30.15S WCI  32
KANKAKEE       CLOUDY    40  33  77 W10       30.20S WCI  33
MOLINE         CLOUDY    41  32  70 NW10      30.22S WCI  35
MOUNT STERLING PTSUNNY   41  32  69 NW8       30.25S
MOUNT VERNON   NOT AVBL
PITTSFIELD     MOSUNNY   43  31  64 W7        30.27S
QUINCY         PTSUNNY   42  31  64 W7        30.25S
ROCKFORD       CLOUDY    38  31  76 NW8       30.20S WCI  32
$$


CITY           SKY/WX    TMP DP  RH WIND       PRES   REMARKS
BURLINGTON     CLOUDY    42  32  67 W8        30.24S
CEDAR RAPIDS   CLOUDY    37  30  75 NW14      30.23S WCI  28
DES MOINES     CLOUDY    41  31  67 N6        30.26F
KIRKSVILLE     MOSUNNY   43  30  60 NW5       30.26F
OTTUMWA        CLOUDY    40  31  70 NW9       30.26R WCI  34
ST LOUIS       MOSUNNY   46  28  49 NW9       30.28R
$$


CITY           SKY/WX    TMP DP  RH WIND       PRES   REMARKS
TERRE HAUTE    CLOUDY    41  30  65 W6        30.23F
EVANSVILLE     SUNNY     46  30  53 N8        30.27F
INDIANAPOLIS   CLOUDY    39  31  72 W8        30.20F WCI  33
LAFAYETTE      CLOUDY    39  33  79 W10       30.20S WCI  32
MADISON        CLOUDY    33  23  66 N10       30.18R WCI  25
MILWAUKEE      CLOUDY    36  22  56 NW12      30.16S WCI  28
$$






USA.gov is the U.S. government's official web portal to all federal, state and local government web resources and services.